Home > Time Zones > World Clock > Weather > Greece > Ilio > Past weeks

Flag for Greece Weather past 2 weeks in Ilio, Greece

Now
57 °F

Clear.


Feels Like: 56 °F
Forecast: 53 / 83 °F
Wind: 6 mph from Northwest

Location: Elefsis Airport

Current Time: May 4, 2015 at 4:14:19 AM

Latest Report: May 4, 2015 at 3:20 AM


Visibility: 10 mi

Pressure: 29.98 "Hg

Humidity: 72%

Dew point: 48 °F

Location of IlioLocation

Historic Weather in Ilio — Graph

°F

Ilio temperature yesterday

Maximum temperature yesterday: 81 °F (at 2:20 PM)
Minimum temperature yesterday: 55 °F (at 6:20 AM)
Average temperature yesterday: 69 °F

Past Weeks' High & Low Weather Summary

 TemperatureHumidityPressure
High81 °F (May 3, 2:20 PM)88% (Apr 19, 2:20 AM)30.24 "Hg (Apr 19, 2:20 AM)
Low43 °F (Apr 22, 3:50 AM)20% (Apr 22, 2:20 PM)29.74 "Hg (Apr 28, 4:50 PM)
Average62 °F58%29.99 "Hg
* Reported Apr 19 2:20 AM — May 4 2:50 AM, Ilio, Weather by CustomWeather, © 2015

Note: Actual official high and low records may vary slightly from our data, if they occured in-between our weather recording intervals... More about our weather records

Advertising

Ilio weather history for previous 24 hours

 ConditionsComfort  
Time TempWeatherWind HumidityBarometerVisibility
2:50 AM
Mon, May 4
57 °FClear.3 mph72%29.98 "Hg10 mi
1:50 AM59 °FClear.5 mph68%29.98 "Hg10 mi
1:20 AM59 °FClear.6 mph68%29.98 "Hg10 mi
12:50 AM59 °FClear.5 mph68%29.98 "Hg10 mi
12:20 AM61 °FClear.3 mph63%29.98 "Hg10 mi
11:20 PM
Sun, May 3
63 °FClear.3 mph64%29.98 "Hg10 mi
10:50 PM61 °FClear.5 mph68%29.98 "Hg10 mi
10:20 PM63 °FClear.5 mph64%29.98 "Hg10 mi
9:50 PM63 °FClear.3 mph68%29.98 "Hg10 mi
9:20 PM66 °FClear.3 mph60%29.95 "Hg10 mi
8:50 PM64 °FSunny.3 mph64%29.95 "Hg10 mi
8:20 PM68 °FSunny.3 mph56%29.95 "Hg10 mi
7:50 PM70 °FSunny.No wind53%29.95 "Hg10 mi
7:20 PM70 °FSunny.5 mph53%29.92 "Hg10 mi
6:50 PM73 °FSunny.9 mph47%29.92 "Hg10 mi
6:20 PM73 °FSunny.12 mph41%29.92 "Hg10 mi
5:50 PM75 °FSunny.14 mph39%29.92 "Hg10 mi
5:20 PM73 °FPassing clouds.9 mph47%29.92 "HgN/A
4:50 PM75 °FPassing clouds.9 mph41%29.92 "HgN/A
3:50 PM79 °FPassing clouds.12 mph32%29.92 "HgN/A
3:20 PM81 °FPassing clouds.12 mph30%29.92 "HgN/A
2:50 PM81 °FPassing clouds.12 mph30%29.92 "HgN/A
2:20 PM81 °FPassing clouds.12 mph30%29.92 "HgN/A
1:50 PM79 °FPassing clouds.12 mph32%29.92 "HgN/A
1:20 PM79 °FPassing clouds.9 mph32%29.92 "HgN/A
12:50 PM79 °FPassing clouds.9 mph34%29.92 "HgN/A
12:20 PM75 °FPassing clouds.9 mph41%29.95 "HgN/A
11:50 AM75 °FSunny.8 mph44%29.95 "Hg10 mi
11:20 AM75 °FSunny.7 mph41%29.95 "Hg10 mi
10:50 AM75 °FSunny.5 mph41%29.95 "Hg10 mi
10:20 AM73 °FSunny.No wind41%29.95 "Hg10 mi
9:50 AM70 °FSunny.5 mph46%29.95 "Hg10 mi
8:50 AM70 °FSunny.No wind46%29.95 "Hg10 mi
8:20 AM70 °FSunny.No wind46%29.95 "Hg10 mi
7:50 AM64 °FSunny.No wind56%29.92 "Hg10 mi
7:20 AM57 °FClear.No wind72%29.92 "Hg10 mi
6:50 AM55 °FPassing clouds.2 mph77%29.92 "HgN/A
6:20 AM55 °FPassing clouds.5 mph72%29.92 "HgN/A
5:20 AM57 °FPassing clouds.No wind72%29.89 "HgN/A
4:50 AM57 °FPassing clouds.No wind72%29.89 "HgN/A
4:20 AM59 °FClear.2 mph68%29.89 "Hg10 mi
Weather by CustomWeather, © 2015

See weather overviewHow to use our weather pages